Geneva, Switzerland

9:09 PM CEST on April 27, 2017 (GMT +0200)
Cointrin

Weather History for LSGG - March, 2013

Change the Weather History Date:

Saturday, March 9, 2013

  Actual Average Record
Temperature  
Mean Temperature 42 °F -  
Max Temperature 50 °F 51 °F 60 °F (2002)
Min Temperature 34 °F 34 °F 24 °F (2016)
Degree Days  
Heating Degree Days 23    
Moisture  
Dew Point 39 °F    
Average Humidity 90    
Maximum Humidity 100    
Minimum Humidity 63    
Precipitation  
Precipitation 0.00 in 0.09 in - ()
Sea Level Pressure  
Sea Level Pressure 29.67 in    
Wind  
Wind Speed 2 mph ()    
Max Wind Speed 6 mph    
Max Gust Speed -    
Visibility 2.7 miles    
Events Fog    
Averages and records for this station are not official NWS values.
T = Trace of Precipitation, MM = Missing Value Source: Averaged Metar Reports

Daily Weather History Graph

Daily Weather History Graph

Search for Another Location

Airport or City:

Trip Planner

Search our weather history database for the weather conditions in past years. The results will help you decide how hot, cold, wet, or windy it might be!

Date:

Astronomy

Mar. 09, 2013 Rise Set
Actual Time 6:59 AM CET 6:33 PM CET
Civil Twilight 6:29 AM CET 7:02 PM CET
Nautical Twilight 5:55 AM CET 7:37 PM CET
Astronomical Twilight 5:19 AM CET 8:13 PM CET
Moon 5:20 AM CET (3/9) 4:11 PM CET (3/9)
Length of Visible Light 12h 33m
Length of Day
11h 33m
Waning Crescent, 7% of the Moon is Illuminated
Mar 9
Waning Crescent
Mar 11
New
Mar 19
First Quarter
Mar 27
Full
Apr 3
Last Quarter

Hourly Weather History & Observations

Time (CET) Temp. Windchill Dew Point Humidity Pressure Visibility Wind Dir Wind Speed Gust Speed Precip Events Conditions
12:00 AM 39 °F - 38 °F 93% 29.76 in - NW 3.5 mph - -  
12:20 AM 39.2 °F - 39.2 °F 100% 29.71 in 0.2 mi Variable 1.2 mph - N/A Fog Fog
12:50 AM 37.4 °F - 37.4 °F 100% 29.71 in 0.5 mi WNW 1.2 mph - N/A Fog Fog
1:00 AM 38 °F - 38 °F 99% 29.75 in 0 mi NW 2.3 mph - - Fog Partial Fog
1:20 AM 37.4 °F - 37.4 °F 100% 29.71 in 0.2 mi Calm Calm - N/A Fog Fog
1:50 AM 35.6 °F - 35.6 °F 100% 29.71 in - Variable 2.3 mph - N/A Fog Fog
2:00 AM 38 °F - 37 °F 94% 29.76 in - WSW 2.3 mph - -  
2:50 AM 33.8 °F - 33.8 °F 100% 29.71 in 0.5 mi Variable 1.2 mph - N/A Fog Fog
3:00 AM 36 °F - 35 °F 95% 29.76 in - WSW 2.3 mph - -  
3:20 AM 35.6 °F - 35.6 °F 100% 29.68 in 0.2 mi Variable 1.2 mph - N/A Fog Fog
3:50 AM 35.6 °F 32.8 °F 35.6 °F 100% 29.68 in 0.2 mi SW 3.5 mph - N/A Fog Fog
4:20 AM 35.6 °F - 35.6 °F 100% 29.68 in 0.3 mi Variable 1.2 mph - N/A Fog Fog
4:50 AM 33.8 °F - 33.8 °F 100% 29.68 in 0.5 mi Variable 2.3 mph - N/A Fog Fog
5:00 AM 36 °F - 35 °F 93% 29.73 in - WSW 1.2 mph - -  
5:20 AM 33.8 °F - 32.0 °F 93% 29.68 in 1.1 mi Variable 1.2 mph - N/A   Mostly Cloudy
5:50 AM 35.6 °F - 35.6 °F 100% 29.68 in 0.2 mi Calm Calm - N/A Fog Fog
6:00 AM 37 °F - 36 °F 95% 29.72 in - SSW 2.3 mph - -  
6:20 AM 37.4 °F - 35.6 °F 93% 29.65 in 0.1 mi Calm Calm - N/A Fog Fog
6:50 AM 37.4 °F - 37.4 °F 100% 29.68 in 0.2 mi Calm Calm - N/A Fog Fog
7:00 AM 38 °F - 38 °F 100% 29.72 in 0 mi NNE 1.2 mph - - Fog Heavy Fog
7:20 AM 37.4 °F - 37.4 °F 100% 29.65 in 0.2 mi Calm Calm - N/A Fog Fog
7:50 AM 39.2 °F - 39.2 °F 100% 29.65 in 0.2 mi Variable 2.3 mph - N/A Fog Fog
8:00 AM 39 °F - 38 °F 95% 29.71 in - WNW 3.5 mph - -  
8:20 AM 39.2 °F - 37.4 °F 93% 29.65 in 0.2 mi Variable 2.3 mph - N/A Fog Fog
8:50 AM 39.2 °F - 39.2 °F 100% 29.68 in 0.2 mi Variable 2.3 mph - N/A Fog Fog
9:00 AM 40 °F - 39 °F 95% 29.71 in - West 1.2 mph - -  
9:20 AM 39.2 °F - 39.2 °F 100% 29.68 in 0.3 mi Calm Calm - N/A Fog Fog
9:50 AM 41.0 °F - 39.2 °F 93% 29.68 in 0.4 mi Variable 2.3 mph - N/A Fog Fog
10:20 AM 41.0 °F - 41.0 °F 100% 29.68 in 1.4 mi Variable 1.2 mph - N/A   Mostly Cloudy
10:50 AM 42.8 °F - 41.0 °F 93% 29.68 in 1.6 mi Variable 2.3 mph - N/A   Mostly Cloudy
11:00 AM 43 °F - 41 °F 89% 29.71 in - WNW 3.5 mph - -  
11:20 AM 42.8 °F - 42.8 °F 100% 29.68 in - Variable 1.2 mph - N/A   Mostly Cloudy
11:50 AM 42.8 °F - 42.8 °F 100% 29.68 in - Variable 2.3 mph - N/A   Mostly Cloudy
12:00 PM 45 °F - 42 °F 84% 29.70 in - West 3.5 mph - -  
12:20 PM 44.6 °F - 44.6 °F 100% 29.65 in 3.1 mi Variable 2.3 mph - N/A   Mostly Cloudy
12:50 PM 46.4 °F 45.2 °F 42.8 °F 87% 29.65 in 3.7 mi WSW 3.5 mph - N/A   Mostly Cloudy
1:00 PM 47 °F - 42 °F 77% 29.69 in 3 mi West 3.5 mph - -   Mist
1:20 PM 46.4 °F 45.2 °F 42.8 °F 87% 29.65 in 3.1 mi Variable 3.5 mph - N/A   Mostly Cloudy
1:50 PM 48.2 °F - 42.8 °F 82% 29.65 in 5.0 mi Variable 1.2 mph - N/A   Mostly Cloudy
2:00 PM 48 °F - 41 °F 70% 29.67 in - North 2.3 mph - -  
2:20 PM 50.0 °F - 42.8 °F 76% 29.65 in 6.2 mi Variable 3.5 mph - N/A   Mostly Cloudy
2:50 PM 50.0 °F - 42.8 °F 76% 29.62 in 6.2 mi Variable 3.5 mph - N/A   Mostly Cloudy
3:00 PM 51 °F - 43 °F 65% 29.64 in - West 3.5 mph - -  
3:20 PM 50.0 °F - 42.8 °F 76% 29.62 in 6.2 mi Variable 2.3 mph - N/A   Mostly Cloudy
3:50 PM 50.0 °F - 42.8 °F 76% 29.62 in 6.2 mi Variable 1.2 mph - N/A   Mostly Cloudy
4:20 PM 50.0 °F - 42.8 °F 76% 29.62 in 6.2 mi West 4.6 mph - N/A   Mostly Cloudy
4:50 PM 50.0 °F - 42.8 °F 76% 29.62 in 6.2 mi WSW 2.3 mph - N/A   Mostly Cloudy
5:00 PM 49 °F - 43 °F 71% 29.64 in - WSW 3.5 mph - -  
5:20 PM 50.0 °F - 42.8 °F 76% 29.62 in 6.2 mi WSW 5.8 mph - N/A   Mostly Cloudy
5:50 PM 50.0 °F - 42.8 °F 76% 29.62 in 6.2 mi SW 3.5 mph - N/A   Mostly Cloudy
6:00 PM 50 °F - 41 °F 63% 29.64 in - WSW 3.5 mph - -  
6:20 PM 50.0 °F - 42.8 °F 76% 29.62 in 6.2 mi SW 2.3 mph - N/A   Scattered Clouds
6:50 PM 46.4 °F - 41.0 °F 81% 29.62 in 6.2 mi Calm Calm - N/A   Scattered Clouds
7:00 PM 45 °F - 41 °F 81% 29.66 in 11 mi NNE 1.2 mph - -   Scattered Clouds
7:20 PM 44.6 °F - 42.8 °F 93% 29.62 in - WNW 2.3 mph - N/A   Clear
7:50 PM 42.8 °F - 41.0 °F 93% 29.62 in - Calm Calm - N/A   Clear
8:00 PM 43 °F - 40 °F 86% 29.67 in - WNW 1.2 mph - -  
8:20 PM 42.8 °F - 41.0 °F 93% 29.62 in - NNW 2.3 mph - N/A   Clear
8:50 PM 42.8 °F - 41.0 °F 93% 29.65 in - Variable 2.3 mph - N/A   Clear
9:00 PM 42 °F - 40 °F 88% 29.68 in - North 3.5 mph - -  
9:20 PM 41.0 °F - 37.4 °F 87% 29.65 in - Variable 1.2 mph - N/A   Clear
9:50 PM 39.2 °F - 37.4 °F 93% 29.65 in 5.0 mi Calm Calm - N/A Fog Fog
10:20 PM 37.4 °F - 37.4 °F 100% 29.65 in 5.0 mi Variable 2.3 mph - N/A Fog Fog
10:50 PM 37.4 °F - 37.4 °F 100% 29.65 in 2.2 mi Calm Calm - N/A Fog Fog
11:00 PM 37 °F - 36 °F 94% 29.71 in - NNW 3.5 mph - -  
11:20 PM 37.4 °F - 35.6 °F 93% 29.65 in 3.7 mi Variable 1.2 mph - N/A   Unknown
11:50 PM 35.6 °F - 35.6 °F 100% 29.65 in 1.2 mi Calm Calm - N/A   Mist